GW6864 Weather Reports


time (UTC)temp
C
wind
direction
speed
KPH
gust
KPH
rain 1hr
cm
rain 24hr
cm
rain mn
cm
humidity
%
barometer
mb
20260906131131 25 164 0.0 0.0 0.00 0.00 0.00 84 1017.0
20260906130626 25 205 1.6 1.6 0.00 0.00 0.00 84 1016.9
20260906130121 25 141 0.0 0.0 0.00 0.00 0.00 85 1017.0
20260906125619 25 141 0.0 0.0 0.00 0.00 0.00 85 1016.7
20260906125118 24 142 0.0 0.0 0.00 0.00 0.00 87 1016.6
20260906124614 24 142 1.6 1.6 0.00 0.00 0.00 87 1016.8
20260906124108 23 142 0.0 0.0 0.00 0.00 0.00 89 1016.6
20260906123608 23 142 0.0 0.0 0.00 0.00 0.00 93 1016.4
20260906123103 22 142 0.0 0.0 0.00 0.00 0.00 95 1016.6
20260906122601 22 142 0.0 0.0 0.00 0.00 0.00 97 1016.7
20260906122058 21 142 0.0 1.6 0.00 0.00 0.00 97 1016.5
20260906121554 21 142 0.0 0.0 0.00 0.00 0.00 97 1016.3
20260906121050 21 142 0.0 0.0 0.00 0.00 0.00 97 1016.3
20260906120545 21 142 0.0 0.0 0.00 0.00 0.00 98 1016.2
20260906120043 20 142 0.0 0.0 0.00 0.00 0.00 98 1016.2
20260906115543 20 142 0.0 0.0 0.00 0.00 0.00 98 1016.3
20260906115038 20 142 0.0 0.0 0.00 0.00 0.00 98 1016.0
20260906114537 20 142 0.0 0.0 0.00 0.00 0.00 98 1016.0
20260906114033 20 141 0.0 0.0 0.00 0.00 0.00 98 1015.8
20260906113532 20 141 0.0 0.0 0.00 0.00 0.00 97 1015.8
20260906113028 20 141 0.0 0.0 0.00 0.00 0.00 97 1015.7
20260906112522 20 141 0.0 0.0 0.00 0.00 0.00 97 1015.5
20260906112019 20 141 0.0 0.0 0.00 0.00 0.00 97 1015.5
20260906111518 20 141 0.0 0.0 0.00 0.00 0.00 97 1015.5
20260906111014 20 141 0.0 0.0 0.00 0.00 0.00 97 1015.5
20260906110508 20 141 0.0 0.0 0.00 0.00 0.00 97 1015.3
20260906110007 20 141 0.0 0.0 0.00 0.00 0.00 97 1015.4
20260906105503 20 141 0.0 0.0 0.00 0.00 0.00 97 1015.1
20260906104959 20 141 0.0 0.0 0.00 0.00 0.00 97 1015.2
20260906104457 20 141 0.0 0.0 0.00 0.00 0.00 97 1015.0
20260906103957 20 141 0.0 0.0 0.00 0.00 0.00 97 1014.9
20260906103455 20 141 0.0 0.0 0.00 0.00 0.00 97 1015.0
20260906102950 20 141 0.0 0.0 0.00 0.00 0.00 97 1014.8
20260906102451 20 141 0.0 0.0 0.00 0.00 0.00 97 1015.1
20260906101951 20 141 0.0 0.0 0.00 0.00 0.00 97 1015.1
20260906101446 20 141 0.0 0.0 0.00 0.00 0.00 97 1015.1
20260906100947 20 141 0.0 0.0 0.00 0.00 0.00 97 1015.0
20260906100442 20 141 0.0 0.0 0.00 0.00 0.00 97 1015.1
20260906095942 20 141 0.0 0.0 0.00 0.00 0.00 97 1015.0
20260906095437 20 141 0.0 0.0 0.00 0.00 0.00 97 1015.1
20260906094932 20 141 0.0 0.0 0.00 0.00 0.00 97 1015.2
20260906094426 21 141 0.0 0.0 0.00 0.00 0.00 97 1015.0
20260906093922 21 141 0.0 0.0 0.00 0.00 0.00 97 1015.1
20260906093419 21 141 0.0 0.0 0.00 0.00 0.00 97 1015.2
20260906092919 21 141 0.0 0.0 0.00 0.00 0.00 97 1014.9
20260906092418 20 141 0.0 0.0 0.00 0.00 0.00 96 1015.0
20260906091914 21 141 0.0 0.0 0.00 0.00 0.00 96 1014.9
20260906091409 20 141 0.0 0.0 0.00 0.00 0.00 96 1014.9
20260906090906 20 141 0.0 0.0 0.00 0.00 0.00 96 1015.0
20260906090406 21 141 0.0 0.0 0.00 0.00 0.00 96 1015.0
20260906085900 20 142 0.0 0.0 0.00 0.00 0.00 96 1015.0
20260906085400 21 142 0.0 0.0 0.00 0.00 0.00 96 1015.0
20260906084859 21 142 0.0 0.0 0.00 0.00 0.00 96 1015.0
20260906084354 21 142 1.6 1.6 0.00 0.00 0.00 96 1015.0
20260906083848 21 141 1.6 1.6 0.00 0.00 0.00 96 1014.9
20260906083344 21 141 0.0 0.0 0.00 0.00 0.00 96 1015.3
20260906082843 21 141 0.0 0.0 0.00 0.00 0.00 96 1015.1
20260906082338 21 141 0.0 0.0 0.00 0.00 0.00 95 1014.9
20260906081834 21 141 0.0 0.0 0.00 0.00 0.00 95 1015.0
20260906081330 21 140 0.0 0.0 0.00 0.00 0.00 95 1015.0
20260906080826 21 140 0.0 0.0 0.00 0.00 0.00 95 1014.9
20260906080322 21 140 0.0 0.0 0.00 0.00 0.00 95 1014.8
20260906075822 21 140 0.0 0.0 0.00 0.00 0.00 95 1014.5
20260906075321 21 141 1.6 1.6 0.00 0.00 0.00 95 1014.8
20260906074817 21 141 0.0 0.0 0.00 0.00 0.00 95 1014.4
20260906074317 21 141 0.0 0.0 0.00 0.00 0.00 95 1014.4
20260906073815 21 141 0.0 0.0 0.00 0.00 0.00 94 1014.3
20260906073311 21 141 0.0 0.0 0.00 0.00 0.00 94 1014.4
20260906072807 21 141 0.0 0.0 0.00 0.00 0.00 94 1014.3
20260906072305 21 141 0.0 0.0 0.00 0.00 0.00 94 1014.2
20260906071758 21 141 0.0 0.0 0.00 0.00 0.00 94 1014.3
20260906071258 21 141 1.6 1.6 0.00 0.00 0.00 94 1014.5
20260906070755 21 142 0.0 1.6 0.00 0.00 0.00 94 1014.4
20260906070250 21 191 0.0 0.0 0.00 0.00 0.00 93 1014.6
20260906065749 21 191 0.0 0.0 0.00 0.00 0.00 93 1014.7
20260906065245 21 192 1.6 1.6 0.00 0.00 0.00 93 1014.7
20260906064741 21 144 0.0 0.0 0.00 0.00 0.00 93 1014.7
20260906064236 21 144 0.0 0.0 0.00 0.00 0.00 93 1014.6
20260906063731 21 143 0.0 0.0 0.00 0.00 0.00 92 1014.7
20260906063227 21 144 0.0 0.0 0.00 0.00 0.00 92 1015.0
20260906062722 21 143 1.6 1.6 0.00 0.00 0.00 92 1014.9
20260906062221 21 144 0.0 0.0 0.00 0.00 0.00 92 1014.9
20260906061717 21 145 0.0 0.0 0.00 0.00 0.00 92 1014.7
20260906061213 21 144 0.0 0.0 0.00 0.00 0.00 92 1015.0
20260906060709 21 187 0.0 0.0 0.00 0.00 0.00 93 1015.1
20260906060206 21 169 0.0 0.0 0.00 0.00 0.00 93 1015.3
20260906055701 21 181 1.6 1.6 0.00 0.00 0.00 92 1015.2
20260906055156 21 182 0.0 1.6 0.00 0.00 0.00 92 1015.4
20260906054652 22 183 0.0 0.0 0.00 0.00 0.00 91 1015.3
20260906054152 22 188 1.6 1.6 0.00 0.00 0.00 91 1015.6
20260906053649 22 189 0.0 1.6 0.00 0.00 0.00 88 1015.6
20260906053144 22 210 3.2 3.2 0.00 0.00 0.00 91 1015.8
20260906052639 22 203 3.2 3.2 0.00 0.00 0.00 91 1015.6
20260906052136 22 186 0.0 0.0 0.00 0.00 0.00 90 1015.5
20260906051632 22 186 0.0 0.0 0.00 0.00 0.00 88 1015.7
20260906051131 22 186 0.0 0.0 0.00 0.00 0.00 90 1015.5
20260906050627 22 178 1.6 1.6 0.00 0.00 0.00 89 1015.7
20260906050122 22 130 1.6 1.6 0.00 0.00 0.00 89 1015.9
20260906045620 22 148 1.6 1.6 0.00 0.03 0.03 88 1015.6
20260906045116 23 194 1.6 1.6 0.00 0.03 0.03 88 1015.5
20260906044612 23 198 0.0 0.0 0.13 0.03 0.03 85 1015.5
20260906044106 23 198 0.0 0.0 0.13 0.03 0.03 84 1015.9
20260906043603 23 199 0.0 0.0 0.00 0.00 0.00 84 1015.7
20260906043058 23 202 1.6 1.6 0.00 0.00 0.00 83 1015.7
20260906042557 23 200 1.6 1.6 0.00 0.00 0.00 82 1015.9
20260906042052 24 226 1.6 1.6 0.00 0.00 0.00 81 1016.2
20260906041549 25 202 0.0 0.0 0.00 0.00 0.00 80 1015.8
20260906041049 25 215 1.6 3.2 0.00 0.00 0.00 77 1016.3
20260906040544 26 202 1.6 1.6 0.00 0.00 0.00 74 1016.4
20260906040039 26 202 0.0 0.0 0.00 0.00 0.00 74 1016.5
20260906035534 26 288 3.2 4.8 0.00 0.00 0.00 77 1016.5
20260906035031 26 214 1.6 1.6 0.00 0.00 0.00 82 1016.3
20260906034530 25 212 3.2 4.8 0.00 0.00 0.00 85 1015.9
20260906034025 25 173 0.0 0.0 0.00 0.00 0.00 87 1015.4
20260906033520 25 173 0.0 0.0 0.00 0.00 0.00 86 1015.5
20260906033016 25 173 1.6 1.6 0.00 0.00 0.00 86 1015.5
20260906032513 25 172 0.0 0.0 0.00 0.00 0.00 85 1015.5
20260906032012 26 172 0.0 0.0 0.00 0.00 0.00 85 1015.4
20260906031508 26 173 0.0 0.0 0.00 0.00 0.00 84 1015.4
20260906031003 26 173 0.0 0.0 0.00 0.00 0.00 84 1015.5
20260906030457 25 173 0.0 0.0 0.00 0.00 0.00 85 1015.3
20260906025957 25 173 0.0 0.0 0.00 0.00 0.00 85 1015.0
20260906025456 25 172 0.0 0.0 0.00 0.00 0.00 85 1014.8
20260906024956 26 172 0.0 0.0 0.00 0.00 0.00 85 1015.0
20260906024456 25 173 0.0 0.0 0.00 0.00 0.00 85 1015.3
20260906023956 25 173 0.0 0.0 0.00 0.00 0.00 86 1015.2
20260906023452 25 173 1.6 1.6 0.00 0.00 0.00 86 1015.0
20260906022947 25 172 0.0 0.0 0.00 0.00 0.00 85 1014.7
20260906022442 25 172 0.0 0.0 0.00 0.00 0.00 85 1014.7
20260906021937 25 172 0.0 0.0 0.00 0.00 0.00 84 1014.7
20260906021432 26 172 0.0 0.0 0.00 0.00 0.00 85 1014.7
20260906020932 26 172 0.0 0.0 0.00 0.00 0.00 85 1014.7
20260906020426 26 172 0.0 0.0 0.00 0.00 0.00 84 1014.7
20260906015921 26 172 0.0 0.0 0.00 0.00 0.00 83 1014.2
20260906015421 26 172 0.0 0.0 0.00 0.00 0.00 83 1014.2
20260906014920 26 172 0.0 0.0 0.00 0.00 0.00 82 1014.4
20260906014420 26 172 0.0 0.0 0.00 0.00 0.00 82 1014.4
20260906013916 26 172 0.0 0.0 0.00 0.00 0.00 81 1014.4
20260906013412 26 172 0.0 0.0 0.00 0.00 0.00 82 1014.3
20260906012907 26 172 0.0 0.0 0.00 0.00 0.00 82 1014.3
20260906012402 26 172 0.0 0.0 0.00 0.00 0.00 81 1014.2
20260906011901 27 172 0.0 0.0 0.00 0.00 0.00 81 1014.2
20260906011356 27 172 0.0 0.0 0.00 0.00 0.00 81 1014.0
20260906010852 27 172 0.0 0.0 0.00 0.00 0.00 80 1014.1
20260906010348 27 172 0.0 0.0 0.00 0.00 0.00 79 1014.2
20260906005844 28 172 0.0 0.0 0.00 0.00 0.00 77 1014.1
20260906005343 28 172 0.0 0.0 0.00 0.00 0.00 76 1014.3
20260906004842 28 172 0.0 0.0 0.00 0.00 0.00 76 1014.4
20260906004341 28 173 0.0 0.0 0.00 0.00 0.00 77 1014.4
20260906003837 28 182 0.0 0.0 0.00 0.00 0.00 77 1014.5
20260906003332 28 127 1.6 1.6 0.00 0.00 0.00 77 1014.4
20260906002827 28 194 0.0 0.0 0.00 0.00 0.00 78 1014.2
20260906002327 28 194 0.0 0.0 0.00 0.00 0.00 77 1014.1
20260906001823 28 194 0.0 0.0 0.00 0.00 0.00 76 1014.3
20260906001318 29 194 0.0 0.0 0.00 0.00 0.00 75 1014.0
20260906000813 29 194 0.0 0.0 0.00 0.00 0.00 74 1014.5
20260906000307 30 194 0.0 0.0 0.00 0.00 0.00 73 1014.5
20260905235802 30 194 0.0 0.0 0.00 0.00 0.00 72 1014.4
20260905235306 30 194 0.0 0.0 0.00 0.00 0.00 71 1014.6
20260905234758 30 193 0.0 0.0 0.00 0.00 0.00 69 1014.4
20260905234252 30 193 0.0 0.0 0.00 0.00 0.00 68 1014.5
20260905233748 31 193 0.0 0.0 0.00 0.00 0.00 68 1014.5
20260905233247 31 193 0.0 0.0 0.00 0.00 0.00 66 1014.3
20260905232747 31 193 0.0 0.0 0.00 0.00 0.00 67 1014.3
20260905232243 31 193 0.0 0.0 0.00 0.00 0.00 66 1014.1
20260905231739 31 193 0.0 0.0 0.00 0.00 0.00 64 1014.0
20260905231234 31 193 0.0 0.0 0.00 0.00 0.00 66 1014.3
20260905230730 32 193 0.0 0.0 0.00 0.00 0.00 65 1014.3
20260905230228 32 193 0.0 0.0 0.00 0.00 0.00 63 1014.3
20260905225727 32 193 0.0 0.0 0.00 0.00 0.00 61 1014.2
20260905225223 32 193 0.0 0.0 0.00 0.00 0.00 59 1014.2
20260905224722 32 193 0.0 0.0 0.00 0.00 0.00 60 1014.2
20260905224217 32 194 0.0 0.0 0.00 0.00 0.00 59 1014.0
20260905223713 32 183 0.0 0.0 0.00 0.00 0.00 62 1014.1
20260905223210 32 183 0.0 0.0 0.00 0.00 0.00 64 1014.1
20260905222705 32 183 0.0 0.0 0.00 0.00 0.00 63 1014.2
20260905222205 32 183 0.0 0.0 0.00 0.00 0.00 64 1014.2
20260905221700 32 183 0.0 0.0 0.00 0.00 0.00 62 1014.2
20260905221157 32 183 0.0 0.0 0.00 0.00 0.00 60 1014.2
20260905220652 32 183 0.0 0.0 0.00 0.00 0.00 60 1014.2
20260905220149 33 183 1.6 1.6 0.00 0.00 0.00 58 1014.3
20260905215648 34 206 0.0 0.0 0.00 0.00 0.00 55 1014.2
20260905215144 33 144 1.6 1.6 0.00 0.00 0.00 53 1014.1
20260905214640 33 147 0.0 0.0 0.00 0.00 0.00 59 1014.2
20260905214141 32 148 1.6 1.6 0.00 0.00 0.00 60 1014.3
20260905213636 33 148 1.6 1.6 0.00 0.00 0.00 57 1014.1
20260905213131 33 147 0.0 0.0 0.00 0.00 0.00 57 1014.2
20260905212626 33 146 1.6 0.0 0.00 0.00 0.00 56 1014.5
20260905212126 33 185 1.6 1.6 0.00 0.00 0.00 55 1014.3
20260905211621 33 183 0.0 0.0 0.00 0.00 0.00 54 1014.3
20260905211116 33 170 1.6 1.6 0.00 0.00 0.00 53 1014.3
20260905210613 33 154 0.0 0.0 0.00 0.00 0.00 53 1014.5
20260905210107 34 166 0.0 0.0 0.00 0.00 0.00 52 1014.3
20260905205606 35 163 1.6 1.6 0.00 0.00 0.00 52 1014.5
20260905205106 35 211 3.2 3.2 0.00 0.00 0.00 51 1014.6
20260905204601 35 195 3.2 3.2 0.00 0.00 0.00 49 1014.6
20260905204056 36 35 4.8 4.8 0.00 0.00 0.00 47 1014.6
20260905203555 35 154 0.0 1.6 0.00 0.00 0.00 49 1014.7
20260905203051 35 194 1.6 3.2 0.00 0.00 0.00 49 1014.6
20260905202546 36 188 0.0 0.0 0.00 0.00 0.00 48 1014.5
20260905202042 35 207 1.6 1.6 0.00 0.00 0.00 49 1014.7
20260905201537 35 202 0.0 0.0 0.00 0.00 0.00 51 1014.5
20260905201037 35 168 0.0 0.0 0.00 0.00 0.00 48 1014.7
20260905200532 36 217 1.6 1.6 0.00 0.00 0.00 49 1014.6
20260905200032 35 146 1.6 1.6 0.00 0.00 0.00 50 1014.8
20260905195526 35 27 1.6 1.6 0.00 0.00 0.00 50 1014.7
20260905195021 35 42 3.2 3.2 0.00 0.00 0.00 51 1014.9
20260905194515 35 153 1.6 1.6 0.00 0.00 0.00 50 1015.1
20260905194016 35 30 3.2 3.2 0.00 0.00 0.00 49 1015.2
20260905193515 36 195 3.2 3.2 0.00 0.00 0.00 50 1015.3
20260905193011 36 250 3.2 3.2 0.00 0.00 0.00 50 1015.5
20260905192506 36 223 3.2 3.2 0.00 0.00 0.00 49 1015.5
20260905192002 36 234 3.2 3.2 0.00 0.00 0.00 48 1015.8
20260905191501 36 197 4.8 6.4 0.00 0.00 0.00 46 1015.9
20260905191000 36 192 1.6 1.6 0.00 0.00 0.00 48 1015.8
20260905190458 36 61 3.2 3.2 0.00 0.00 0.00 48 1015.7
20260905185957 36 241 1.6 3.2 0.00 0.00 0.00 48 1016.0
20260905185452 36 310 3.2 3.2 0.00 0.00 0.00 51 1015.8
20260905184951 36 182 1.6 1.6 0.00 0.00 0.00 50 1015.8
20260905184446 35 196 3.2 3.2 0.00 0.00 0.00 51 1015.7
20260905183945 35 18 3.2 3.2 0.00 0.00 0.00 50 1015.6
20260905183445 36 55 4.8 4.8 0.00 0.00 0.00 50 1015.9
20260905182940 35 108 1.6 3.2 0.00 0.00 0.00 51 1015.7
20260905182439 35 198 1.6 1.6 0.00 0.00 0.00 54 1015.8
20260905181935 35 40 3.2 3.2 0.00 0.00 0.00 53 1016.2
20260905181435 35 207 0.0 0.0 0.00 0.00 0.00 51 1016.3
20260905180934 35 234 1.6 3.2 0.00 0.00 0.00 53 1016.5
20260905180429 34 206 1.6 1.6 0.00 0.00 0.00 55 1016.4
20260905175924 34 208 4.8 4.8 0.00 0.00 0.00 53 1016.6
20260905175423 33 197 1.6 1.6 0.00 0.00 0.00 58 1016.4
20260905174918 34 126 4.8 4.8 0.00 0.00 0.00 55 1016.5
20260905174414 35 49 3.2 3.2 0.00 0.00 0.00 55 1016.6
20260905173910 34 278 3.2 3.2 0.00 0.00 0.00 55 1016.6
20260905173406 35 277 3.2 3.2 0.00 0.00 0.00 54 1016.7
20260905172901 35 201 1.6 1.6 0.00 0.00 0.00 57 1016.7
20260905172359 34 149 4.8 4.8 0.00 0.00 0.00 55 1016.8
20260905171854 34 114 1.6 1.6 0.00 0.00 0.00 57 1017.0
20260905171351 34 203 3.2 3.2 0.00 0.00 0.00 58 1016.8
20260905170848 34 193 1.6 1.6 0.00 0.00 0.00 57 1017.2
20260905170344 34 187 1.6 1.6 0.00 0.00 0.00 58 1017.0
20260905165843 34 183 1.6 1.6 0.00 0.00 0.00 55 1017.1
20260905165338 33 171 1.6 3.2 0.00 0.00 0.00 60 1017.0
20260905164838 33 209 3.2 4.8 0.00 0.00 0.00 56 1017.0
20260905164333 33 132 1.6 1.6 0.00 0.00 0.00 56 1017.1
20260905163828 34 108 3.2 3.2 0.00 0.00 0.00 56 1017.0
20260905163325 34 168 1.6 1.6 0.00 0.00 0.00 56 1017.3
20260905162821 34 161 3.2 3.2 0.00 0.00 0.00 55 1017.1
20260905162321 33 214 1.6 1.6 0.00 0.00 0.00 58 1017.2
20260905161821 33 55 1.6 1.6 0.00 0.00 0.00 59 1017.5
20260905161320 33 193 1.6 1.6 0.00 0.00 0.00 58 1017.3
20260905160818 33 62 1.6 1.6 0.00 0.00 0.00 57 1017.4
20260905160313 33 53 1.6 1.6 0.00 0.00 0.00 57 1017.4
20260905155808 33 303 3.2 3.2 0.00 0.00 0.00 55 1017.4
20260905155306 33 3 3.2 3.2 0.00 0.00 0.00 55 1017.2
20260905154801 33 219 1.6 3.2 0.00 0.00 0.00 58 1017.2
20260905154257 33 203 1.6 1.6 0.00 0.00 0.00 56 1017.1
20260905153752 33 221 1.6 1.6 0.00 0.00 0.00 57 1017.4
20260905153248 32 301 4.8 4.8 0.00 0.00 0.00 58 1017.2
20260905152743 33 189 4.8 4.8 0.00 0.00 0.00 57 1017.3
20260905152242 33 194 1.6 1.6 0.00 0.00 0.00 60 1017.5
20260905151741 32 70 1.6 1.6 0.00 0.00 0.00 60 1017.4
20260905151238 32 99 1.6 1.6 0.00 0.00 0.00 61 1017.4
20260905150737 32 128 1.6 1.6 0.00 0.00 0.00 62 1017.3
20260905150237 32 128 1.6 1.6 0.00 0.00 0.00 61 1017.4
20260905145735 33 212 1.6 1.6 0.00 0.00 0.00 57 1017.6
20260905145230 33 132 1.6 1.6 0.00 0.00 0.00 58 1017.4
20260905144729 32 188 1.6 1.6 0.00 0.00 0.00 63 1017.5
20260905144224 31 197 0.0 0.0 0.00 0.00 0.00 66 1017.5
20260905143723 30 196 3.2 3.2 0.00 0.00 0.00 67 1017.5
20260905143223 30 192 3.2 3.2 0.00 0.00 0.00 68 1017.4
20260905142721 30 183 1.6 1.6 0.00 0.00 0.00 72 1017.5
20260905142216 30 179 1.6 1.6 0.00 0.00 0.00 69 1017.5
20260905141712 30 182 1.6 1.6 0.00 0.00 0.00 70 1017.5
20260905141208 29 140 1.6 0.0 0.00 0.00 0.00 73 1017.5
20260905140703 28 179 1.6 1.6 0.00 0.00 0.00 73 1017.6
20260905140203 27 179 0.0 0.0 0.00 0.00 0.00 76 1017.4
20260905135657 27 177 3.2 3.2 0.00 0.00 0.00 79 1017.4
20260905135154 26 192 1.6 1.6 0.00 0.00 0.00 82 1017.5
20260905134653 25 212 0.0 0.0 0.00 0.00 0.00 86 1017.5
20260905134152 25 212 1.6 1.6 0.00 0.00 0.00 86 1017.4
20260905133648 25 212 0.0 0.0 0.00 0.00 0.00 86 1017.7
20260905133148 25 213 3.2 3.2 0.00 0.00 0.00 85 1017.8
20260905132647 25 171 0.0 0.0 0.00 0.00 0.00 88 1017.8
20260905132143 25 172 0.0 0.0 0.00 0.00 0.00 89 1018.0
20260905131638 24 172 0.0 0.0 0.00 0.00 0.00 90 1018.0